Regional Weather Roundup
Issued by NWS Northern Indiana

Home | Current Version | Previous Version | Graphics & Text | Print | Product List | Glossary On
Versions: 1 2 3 4 5 6 7 8 9 10 11 12 13 14 15 16 17 18 19 20 21 22 23 24 25 26 27 28 29 30 31 32 33 34 35 36 37 38 39 40 41 42 43 44 45 46 47 48 49 50
000
ASUS43 KIWX 180300
RWRIWX

KIWX WEATHER ROUNDUP
NATIONAL WEATHER SERVICE NORTHERN INDIANA
1100 PM EDT FRI APR 17 2015

NOTE: "FAIR" INDICATES FEW OR NO CLOUDS BELOW 12,000 FEET WITH NO
SIGNIFICANT WEATHER AND/OR OBSTRUCTIONS TO VISIBILITY.

* THESE STATIONS ARE NOT UNDER NWS QUALITY CONTROL. THEY ALSO MAY NOT
  REPORT WEATHER SUCH AS PRECIPITATION OR FOG.

INZ001>027-180400-
NORTHERN INDIANA

CITY           SKY/WX    TMP DP  RH WIND       PRES   REMARKS
GARY*          PTCLDY    57  46  67 CALM      30.02R
SOUTH BEND     CLEAR     57  45  64 CALM      30.03S
GOSHEN         CLEAR     58  45  62 CALM      30.03S
ANGOLA*        CLEAR     55  46  71 CALM      30.04S
FORT WAYNE     PTCLDY    60  48  64 CALM      30.04F
PERU/GRISSOM   CLEAR     60  49  65 CALM      30.03S

$$
INZ028>050-180400-
CENTRAL INDIANA

CITY           SKY/WX    TMP DP  RH WIND       PRES   REMARKS
LAFAYETTE      CLEAR     59  48  67 CALM      30.03R
KOKOMO*        CLEAR     57  48  72 S3        30.04S
MUNCIE*        CLEAR     60  44  55 CALM      30.05S
INDIANAPOLIS   CLEAR     65  43  44 E3        30.03S

$$
MIZ043>046-050>051-056>058-064>065-071>073-077>080-180400-
SOUTHWEST LOWER MICHIGAN

CITY           SKY/WX    TMP DP  RH WIND       PRES   REMARKS
BATTLE CREEK   CLEAR     58  42  55 CALM      30.03F
BENTON HARBOR  CLEAR     57  46  66 CALM      30.01S
COLDWATER*     CLEAR     57  41  55 CALM      30.03S
HILLSDALE*     CLEAR     59  40  48 CALM      30.04S
HOLLAND        CLEAR     56  44  64 CALM      30.02S
GRAND RAPIDS   CLEAR     61  39  44 W3        30.02S
KALAMAZOO      CLEAR     60  42  51 CALM      30.03S
STURGIS*       CLEAR     57  45  62 CALM      30.03S
THREE RIVERS*  FAIR      55  45  67 CALM      30.03S

$$
OHZ001>008-015>018-024>025-180400-
NORTHWEST OHIO

CITY           SKY/WX    TMP DP  RH WIND       PRES   REMARKS
DEFIANCE       PTCLDY    60  45  57 CALM      30.03S
FINDLAY        CLEAR     61  40  45 S6        30.03S
TOLEDO EXPRESS CLEAR     58  43  57 CALM      30.02S
TOLEDO METCALF CLEAR     59  41  51 SW3       30.02F
LIMA           PTCLDY    61  40  45 S6        30.04S

$$
AND FOR LAKE MICHIGAN COASTAL AND OPEN LAKE BUOY OBSERVATIONS

STATION/POSITION TEMP    WIND        PRES    VSBY  WAVE
                 AIR SEA DIR/SP/G                  HT/PER
                 (F)     (DEG/KT/KT) (MB)    (MI)  (FT/S)
CALUMET HARBOR    60      CALM  /  1   N/A
MICHIGAN CITY     70     100/  7/  8   N/A
BURNS HARBOR      70     140/  5/  8 1016.9S
SAINT JOSEPH      65     110/  2/  4 1016.6F
MICHIGAN CITY     60 47                N/A           0

$$
&&



USA.gov is the U.S. government's official web portal to all federal, state and local government web resources and services.